Location: Peterborough
(44.3091°N, 78.3197°W)
Time: 00:06:42
(UTC-04:00)

Vanguard 2 Rocket - Pass Details

Date: 22 March 2023
Orbit: 554 x 3314 km, 32.9° (Epoch: 02 June)

Event Time Altitude Azimuth Distance (km) Brightness Sun altitude
Rises 19:07:41 0° 185° (S) 3,522 10.0 2.8°
Reaches altitude 10° 19:11:57 10° 155° (SSE) 3,055 9.4 2.0°
Maximum altitude 19:14:42 12° 133° (SE) 3,205 9.3 1.5°
Drops below altitude 10° 19:17:55 10° 113° (ESE) 3,745 9.5 1.0°
Enters shadow 19:24:40 - 89° (E) 5,449 10.1 -0.2°
Sets 19:24:52 0° 88° (E) 5,504 - -0.3°
